STARLINK-35873, 67860

Orbit data source: Space-Track

STARLINK-35873, 67860 is a payload satellite owned by SpaceX/Seattle (US) in LEO that was launched on Fri, 20 Feb 2026 UTC via an FALCON 9 launch vehicle from the Air Force Eastern Test Range (AFETR). Payload-class satellites include a variety of spacecraft equipped with specific instruments for various scientific and technological missions. These include communications satellites like Starlink; space stations such as the ISS; scientific satellites like the Hubble; Earth observation satellites from companies like Planet Labs, Umbra, and HawkEye 360; GPS; miniature CubeSats for education and research; and military/defense satellites.

Loading next visibility...
Identifier
67860, 2026-034L
Orbit
LEO
Country
Flag of USUS
Related business
Manufacturer
SpaceX/Seattle
Mission
Operational Commercial Communications
Bus & Motor
STARLINK V2MO, Unknown motor
Mass
575 kg wet, ~530 kg dry
Launch date (UTC)
2026-02-20 (4 months ago)
Launch vehicle
FALCON 9
Launch site
Air Force Eastern Test Range (AFETR)
Object type
Payload
Rocket body
Debris
Shape & HBR
Box + 2 Pan, 17.7 m
Radar Cross Section
36.964 m², Large (>1 m²)

Expand to show TLE details & history
Last TLE update: 22 hours ago

TLE from 22 hours ago
0 STARLINK-35873
1 67860U 26034L   26170.92035883  .00028886  00000-0  98308-3 0  9999
2 67860  53.1596  89.6814 0001386 108.2439 251.8713 15.30217874 19712
Epoch: 2026-06-19T22:05Z
TLE epoch observation values (Epoch: 2026-06-19T22:05:19.002Z)
Latitude
-0.00002°
Longitude
-149.7902°
Altitude
476.357 km
Speed
7.629 km/s
True Right ascension
05h 58m 43s
True Declination
0° 00' 00"
Sunlit
Object was in daylight at epoch
Visualization orbit readout
Latitude
Unknown
Longitude
Unknown
Altitude
Unknown
Speed
Unknown
Apparent Right ascension
Unknown
Apparent Declination
Unknown
Sunlit
N/A
Visualization observer readout
Local Sidereal Time
07:16:51
Azimuth
Unknown
Elevation
Unknown
Doppler factor
Unknown
Orbital elements
Apogee altitude
476.368 km
Perigee altitude
474.468 km
Semi-major axis
6,853.555 km
Eccentricity
0.00014
Inclination
53.1596°
RAAN
89.6814°
Arg. of periapsis
108.2439°
True anomaly
251.85621°
Mean anomaly
251.8713°
Eccentric anomaly
251.86375°
Mean motion
3.82533 °/min
Orbital period
94.11 mins
BSTAR
0.00098308
Loading maneuver chart data...
Computing Atmospheric mass density...
Loading historical data...
Loading historical data...
Loading historical data...
Loading historical data...
Loading historical data...
Loading historical data...
Loading historical data...

Documentation

Showing up to 5 results
|